UITMSAT-2

Last updated on Sun Apr 12 2026 00:02:13 GMT+0000 (Coordinated Universal Time)

1 67686U 98067YC 26101.17939142 .00046265 00000+0 63791-3 0 9990 2 67686 51.6296 269.6181 0009995 281.9734 78.0137 15.56684408 9847
UTC large
Height (km)
Speed (km/s)
/
Latitude / Longitude
Inclination (degrees)
Orbital Period (minutes)
Azimuth
Elevation
Range (km)
Doppler Factor

Next 0 passes for location: London (51.5072 / 0.1276)

Sorry there are no passes over London.
UITMSAT-2